Wind_Speed
39 51 61 67 78 87 93 100 108 116 127 132 136 141 140 136 130 127 125 122 119 116 113 110 108 106 105 104 105 105 105 104 102 100 98 94 93 93 94 92 89 87 85 85
31 42 55 62 68 82 90 94 100 107 116 124 126 134 141 140 135 130 128 127 125 122 119 118 114 111 109 107 106 104 104 103 103 102 101 98 95 94 93 93 93 92 90 87
26 36 46 56 63 71 85 91 94 98 103 111 121 125 133 141 140 135 132 130 129 127 124 122 120 118 116 114 110 109 107 104 103 102 101 100 98 97 96 95 94 93 91 90
21 29 38 48 58 65 75 86 90 93 97 103 112 119 121 129 142 140 137 134 132 131 131 129 125 124 123 121 119 116 113 110 106 104 101 99 98 96 95 93 94 94 93 92
17 25 31 40 50 59 66 75 84 90 92 96 103 108 115 118 129 142 142 138 137 136 134 133 131 129 128 126 124 122 120 117 113 109 105 103 100 98 96 93 90 89 89 88
14 20 26 33 42 51 59 67 74 81 89 92 94 99 104 111 119 129 141 143 141 140 139 138 136 133 131 130 128 126 124 122 119 116 114 110 106 104 101 98 95 92 90 87
14 16 22 28 35 43 54 61 67 72 79 87 92 93 96 100 106 117 127 140 145 145 143 141 140 139 137 134 132 130 128 126 125 124 122 118 114 112 109 105 101 97 95 92
13 14 18 24 30 36 46 55 62 66 71 77 85 90 93 94 99 103 115 125 135 144 146 145 143 142 141 139 137 136 133 130 129 128 127 124 121 119 116 112 108 105 102 100
12 12 14 19 25 32 38 45 55 61 65 69 75 81 87 89 94 98 101 108 116 129 140 146 148 146 144 144 143 141 138 136 133 132 132 130 128 126 123 120 117 115 111 108
15 12 13 16 21 27 33 39 45 53 60 64 69 73 77 82 86 93 96 98 104 110 116 128 139 145 148 147 146 147 146 143 140 137 136 134 133 132 130 127 125 123 121 118
21 14 11 14 18 22 27 32 39 46 53 60 64 67 71 76 80 84 88 91 96 100 105 110 118 129 140 149 149 148 148 147 144 144 143 142 140 136 135 135 133 131 129 127
23 20 13 10 14 19 23 28 32 38 45 53 60 65 67 70 74 79 82 84 87 90 95 101 107 113 120 129 139 149 151 151 150 149 148 147 146 144 142 140 138 136 135 133
24 20 18 14 10 14 20 23 27 32 37 43 50 58 64 68 71 74 77 81 84 85 88 93 97 102 107 112 119 127 136 145 151 152 151 152 149 148 147 147 146 143 141 140
27 21 17 16 15 12 14 20 24 27 32 38 43 48 54 60 65 70 73 75 78 81 84 86 89 94 98 103 108 113 120 126 133 140 146 151 153 153 151 151 150 149 147 145
31 25 20 16 14 15 15 14 18 23 27 31 37 42 48 53 58 63 68 72 75 77 80 82 85 88 91 95 100 105 111 114 116 121 128 135 141 146 150 154 155 152 151 150
34 27 22 19 16 14 14 16 16 18 22 28 32 36 41 46 51 57 61 66 71 74 77 80 82 85 87 90 93 98 102 105 109 113 116 119 122 126 131 137 142 143 147 149
35 31 25 20 18 16 15 15 16 18 20 22 26 31 35 39 43 48 53 58 63 68 73 77 79 81 83 86 88 90 95 98 101 105 108 112 115 117 120 122 121 123 127 130
38 34 27 22 18 16 16 16 17 19 20 22 25 28 31 35 39 43 47 51 54 59 64 69 73 77 80 82 85 85 88 91 95 98 100 101 104 108 110 112 114 118 121 121
41 36 30 24 20 18 18 18 19 20 22 23 26 29 32 34 37 39 42 46 49 54 57 60 64 69 73 77 81 83 84 86 88 90 93 96 98 100 102 104 107 109 112 116
44 39 32 27 24 22 21 22 21 23 24 26 27 29 31 35 38 40 41 42 44 49 51 56 58 60 64 68 72 75 79 82 85 87 89 90 93 96 98 100 101 102 103 106
47 42 35 31 28 28 27 27 26 27 29 30 30 30 31 33 37 39 41 42 43 45 45 49 54 55 58 62 64 67 69 72 76 80 83 85 88 89 91 93 94 95 96 96
50 44 39 34 32 31 31 32 33 33 32 32 31 31 30 31 34 36 38 39 40 43 44 44 46 49 52 56 59 61 63 65 68 71 74 78 81 84 86 88 88 89 89 90
52 47 43 38 35 34 33 33 34 32 31 32 32 31 31 31 32 33 35 38 37 41 43 43 43 44 47 51 53 55 56 58 61 64 67 69 72 75 77 79 82 84 85 86
55 50 46 41 38 37 36 34 33 31 31 31 31 30 29 28 28 30 31 34 36 37 40 41 41 42 45 47 47 48 50 53 55 56 58 61 64 66 68 71 73 76 78 80
57 52 48 43 41 39 36 35 33 31 29 28 27 27 27 26 27 28 26 29 32 34 37 38 39 40 44 44 44 44 45 47 50 51 52 54 56 58 60 62 64 67 70 72
58 53 49 45 42 39 37 35 33 30 28 27 27 26 26 26 27 27 27 26 27 30 32 33 37 40 41 42 41 43 44 45 45 46 47 49 50 52 54 55 57 59 60 62
60 57 50 46 44 41 38 34 31 28 27 27 28 27 26 25 25 26 27 28 27 26 28 30 32 34 37 40 41 39 41 43 45 45 45 46 46 47 48 50 51 52 54 56
Wind_Direction
225 223 223 222 218 219 219 221 222 221 223 224 220 219 219 219 223 223 225 226 226 226 227 228 229 231 232 234 236 238 239 239 240 241 242 243 243 244 245 246 246 247 248 249
227 224 224 224 220 219 220 221 222 222 222 225 224 220 219 220 220 224 225 226 226 227 227 228 229 231 232 232 234 236 237 239 240 241 241 241 242 243 244 246 247 248 250 251
231 226 226 223 223 219 220 221 222 223 223 223 226 224 221 219 220 222 224 225 226 227 228 229 229 230 232 233 234 235 236 238 239 240 241 241 242 243 244 245 247 248 249 250
236 229 227 226 222 222 221 222 223 224 224 223 224 226 225 221 219 220 223 225 226 228 229 229 229 230 232 233 234 235 236 237 238 240 241 241 241 242 243 244 246 247 249 251
248 235 228 227 226 223 223 223 224 224 225 224 226 226 227 225 221 221 221 224 227 227 229 230 231 232 232 233 234 236 237 238 239 240 241 241 242 243 245 245 245 246 248 249
265 246 232 226 226 225 225 225 225 225 226 226 226 227 227 227 225 222 222 224 226 229 229 230 231 233 234 235 236 237 238 239 240 241 241 241 242 244 245 246 246 246 247 248
282 254 241 231 225 226 225 226 227 226 226 228 228 228 228 229 227 226 224 223 225 227 230 231 232 233 234 235 236 237 238 240 241 241 242 242 242 243 244 246 246 247 247 247
301 273 249 237 230 225 227 227 227 228 227 226 229 230 230 228 229 228 228 228 226 227 229 231 233 234 235 237 238 239 240 242 243 244 243 243 244 245 245 245 246 246 246 248
323 289 261 246 234 228 227 227 228 228 229 229 228 230 232 231 230 230 229 229 230 229 229 231 232 234 236 238 239 241 242 242 242 243 243 244 244 244 245 245 245 246 246 247
341 313 279 257 244 234 228 227 228 230 229 230 231 231 232 234 233 233 232 230 231 233 232 231 232 233 235 237 239 240 241 242 243 244 243 243 245 245 245 246 246 246 246 247
338 332 304 271 253 245 238 230 225 227 230 231 232 233 233 234 235 236 236 234 233 232 232 233 233 233 233 235 236 238 240 241 242 243 243 242 243 244 245 245 245 246 246 246
336 331 322 294 264 249 243 240 236 228 225 228 231 233 234 234 234 236 238 237 237 234 232 232 233 234 234 235 236 237 239 240 241 243 244 244 244 244 245 246 246 246 247 248
338 330 323 313 286 259 248 240 239 239 236 231 228 229 231 233 234 235 236 236 237 238 237 236 234 234 233 235 237 238 239 240 241 242 243 244 245 246 247 247 247 248 248 249
341 333 323 313 306 284 255 247 242 236 237 238 238 235 234 233 233 234 236 237 237 237 236 236 235 235 235 234 235 237 239 240 242 242 243 244 244 245 247 247 249 250 250 251
345 336 326 318 305 296 286 260 243 241 239 237 237 239 239 238 237 236 236 236 237 237 237 237 237 237 236 236 235 236 237 239 240 242 243 244 245 246 246 247 248 249 251 252
347 342 329 320 310 299 284 280 271 251 240 240 240 239 238 239 240 240 239 238 238 238 237 236 236 237 237 237 236 237 238 238 239 240 241 243 244 245 246 248 248 249 250 251
348 344 336 325 315 304 295 283 273 268 262 252 244 243 243 242 241 240 240 241 241 240 239 238 238 238 237 237 237 236 238 239 240 241 242 243 244 245 245 246 247 248 249 250
350 346 339 329 319 307 298 289 283 276 268 262 258 253 248 245 245 246 245 243 242 243 243 243 241 240 239 239 239 238 239 239 239 240 241 242 243 244 245 245 246 246 247 248
351 347 343 334 325 315 306 299 290 283 276 269 263 260 258 255 251 246 245 246 246 245 244 244 244 244 243 242 241 241 240 240 240 240 241 242 243 244 244 245 246 246 247 247
352 350 345 339 331 322 312 305 297 290 285 278 271 266 263 259 258 255 251 248 245 245 244 245 245 244 245 245 244 243 241 241 240 240 241 241 242 243 245 246 246 247 247 248
352 349 344 338 332 326 319 312 305 297 292 287 282 276 268 264 261 259 257 254 251 249 244 243 245 244 244 245 246 246 246 245 244 242 242 242 243 243 244 245 247 248 249 249
351 347 342 337 332 327 320 315 310 305 301 294 287 282 276 270 265 262 259 258 256 256 253 248 245 244 242 242 244 244 245 245 245 245 245 244 243 244 244 245 245 246 247 248
350 346 342 336 331 327 322 317 312 308 303 297 294 289 283 276 270 266 263 261 256 255 257 257 252 248 246 243 242 243 243 243 243 242 243 244 245 244 244 244 244 245 245 246
349 345 342 337 333 329 326 321 317 312 307 302 298 293 288 284 277 271 264 261 260 258 258 257 257 255 252 250 246 243 242 243 244 244 243 242 242 243 243 244 244 245 245 246
349 346 343 338 335 332 329 325 322 318 313 307 302 298 293 289 283 277 270 264 260 257 255 256 256 254 253 254 253 250 247 244 243 242 243 244 244 244 243 243 243 243 244 245
349 346 343 340 338 335 332 329 326 323 319 314 307 302 296 292 287 283 279 271 264 262 260 254 253 253 254 255 253 252 251 250 249 247 243 241 242 243 244 244 244 243 243 243
349 347 345 342 340 338 336 334 330 326 322 317 311 306 301 296 291 285 280 276 272 265 260 258 255 252 250 252 253 251 251 250 249 248 247 245 244 242 242 242 241 241 242 243
Height
10070 10076 10083 10093 10106 10116 10128 10140 10155 10177 10194 10214 10242 10263 10282 10301 10317 10335 10350 10368 10384 10399 10412 10420 10431 10441 10451 10461 10470 10479 10490 10500 10509 10518 10526 10536 10544 10553 10563 10571 10578 10585 10593 10599
10060 10065 10072 10081 10092 10103 10112 10123 10137 10153 10172 10190 10213 10235 10256 10276 10295 10312 10328 10342 10358 10374 10387 10397 10409 10418 10429 10438 10447 10456 10466 10476 10486 10495 10505 10515 10526 10535 10543 10551 10559 10567 10574 10581
10052 10055 10061 10069 10079 10089 10097 10108 10121 10135 10153 10174 10187 10206 10228 10251 10269 10287 10303 10319 10331 10346 10361 10373 10385 10395 10405 10414 10425 10433 10443 10453 10463 10473 10483 10495 10506 10515 10523 10531 10539 10546 10554 10560
10046 10047 10051 10058 10066 10075 10084 10093 10106 10119 10133 10150 10164 10179 10201 10224 10242 10260 10276 10291 10307 10319 10330 10344 10357 10368 10378 10389 10399 10408 10419 10430 10441 10451 10463 10474 10485 10493 10501 10511 10520 10527 10535 10541
10039 10040 10044 10048 10056 10065 10073 10081 10092 10104 10115 10129 10143 10158 10176 10197 10215 10233 10251 10266 10278 10290 10304 10317 10332 10343 10353 10362 10373 10385 10395 10408 10420 10431 10442 10453 10464 10473 10481 10491 10501 10509 10515 10521
10035 10034 10036 10040 10045 10053 10062 10069 10078 10089 10100 10112 10125 10137 10153 10168 10186 10205 10225 10239 10252 10264 10276 10289 10303 10316 10328 10339 10350 10361 10372 10384 10396 10408 10418 10430 10442 10451 10460 10470 10481 10489 10495 10503
10029 10029 10029 10031 10036 10042 10048 10058 10064 10075 10085 10096 10107 10120 10132 10146 10162 10179 10195 10210 10225 10237 10249 10265 10278 10290 10300 10312 10324 10335 10346 10358 10370 10380 10392 10404 10416 10425 10436 10447 10458 10468 10474 10481
10024 10024 10024 10024 10027 10032 10036 10044 10051 10060 10069 10080 10089 10099 10112 10126 10138 10154 10168 10183 10200 10212 10225 10238 10250 10262 10276 10288 10298 10308 10321 10332 10343 10355 10365 10378 10390 10399 10411 10423 10434 10442 10452 10458
10022 10019 10018 10018 10020 10022 10025 10031 10038 10046 10055 10064 10073 10082 10091 10105 10119 10130 10145 10159 10172 10185 10198 10210 10224 10236 10248 10258 10268 10282 10293 10302 10312 10323 10336 10349 10361 10370 10382 10394 10406 10414 10425 10433
10020 10016 10013 10012 10013 10014 10017 10021 10026 10032 10039 10047 10056 10065 10074 10083 10095 10107 10119 10133 10145 10155 10168 10182 10194 10207 10219 10227 10238 10248 10257 10268 10280 10292 10305 10318 10327 10340 10352 10362 10373 10385 10394 10403
10016 10013 10009 10007 10006 10006 10008 10012 10016 10021 10026 10033 10039 10048 10057 10065 10074 10083 10094 10105 10119 10130 10140 10151 10162 10173 10185 10194 10205 10214 10223 10233 10248 10257 10268 10280 10291 10305 10317 10325 10338 10349 10359 10371
10013 10008 10006 10003 10001 10000 10000 10002 10005 10010 10015 10020 10026 10031 10038 10047 10055 10062 10069 10079 10091 10102 10114 10125 10135 10145 10154 10164 10175 10183 10192 10202 10214 10224 10235 10245 10257 10270 10281 10290 10303 10314 10323 10337
10011 10006 10000 9998 9997 9996 9995 9995 9996 9998 10001 10006 10012 10017 10023 10029 10035 10042 10050 10058 10066 10075 10085 10095 10105 10115 10125 10135 10144 10153 10162 10172 10182 10192 10203 10210 10225 10237 10248 10256 10265 10280 10290 10300
10008 10002 9998 9994 9990 9990 9990 9989 9989 9990 9992 9994 9997 10002 10007 10012 10018 10024 10030 10036 10044 10052 10060 10069 10077 10086 10095 10105 10115 10123 10131 10139 10148 10159 10169 10179 10191 10201 10212 10220 10229 10240 10255 10265
10005 9999 9994 9991 9987 9984 9982 9983 9984 9984 9985 9986 9988 9991 9993 9996 10001 10006 10011 10016 10021 10028 10035 10044 10051 10059 10068 10076 10086 10094 10102 10110 10118 10127 10135 10144 10154 10167 10177 10184 10195 10210 10220 10231
10002 9996 9990 9985 9983 9981 9978 9976 9975 9976 9977 9978 9979 9980 9982 9985 9987 9990 9993 9997 10002 10008 10014 10020 10027 10034 10042 10049 10058 10066 10073 10081 10089 10097 10106 10113 10122 10132 10141 10149 10161 10174 10182 10190
9998 9992 9986 9982 9978 9975 9972 9971 9970 9969 9968 9969 9969 9970 9970 9970 9972 9975 9978 9981 9984 9988 9992 9997 10004 10010 10017 10025 10032 10040 10046 10053 10061 10069 10077 10085 10092 10101 10110 10119 10129 10138 10145 10155
9994 9987 9981 9977 9973 9970 9967 9965 9962 9961 9960 9959 9959 9959 9958 9958 9959 9959 9960 9962 9966 9969 9973 9976 9982 9987 9993 10000 10006 10014 10021 10027 10035 10043 10050 10057 10064 10070 10077 10086 10096 10104 10112 10121
9990 9983 9977 9972 9968 9964 9961 9958 9956 9953 9951 9950 9949 9947 9946 9946 9946 9947 9947 9948 9950 9950 9954 9957 9962 9967 9972 9977 9982 9989 9996 10002 10010 10016 10023 10030 10036 10043 10050 10057 10065 10073 10081 10089
9988 9979 9972 9967 9962 9958 9954 9950 9948 9945 9941 9939 9937 9936 9934 9933 9931 9931 9932 9933 9935 9935 9938 9938 9941 9946 9950 9955 9961 9967 9973 9979 9985 9992 9998 10005 10012 10018 10024 10031 10038 10045 10053 10060
9984 9975 9968 9962 9956 9950 9945 9941 9937 9934 9930 9926 9924 9922 9921 9919 9917 9916 9916 9918 9919 9919 9924 9925 9925 9929 9931 9934 9938 9941 9949 9956 9961 9968 9975 9980 9987 9994 10000 10007 10013 10020 10028 10035
9980 9971 9963 9956 9950 9944 9937 9931 9925 9920 9916 9913 9910 9908 9906 9905 9903 9901 9902 9902 9903 9902 9905 9909 9912 9914 9916 9918 9920 9924 9929 9934 9939 9945 9951 9957 9963 9969 9976 9983 9990 9996 10003 10010
9975 9965 9956 9949 9942 9935 9929 9922 9916 9909 9904 9899 9896 9893 9892 9891 9889 9888 9887 9887 9889 9887 9887 9889 9893 9897 9899 9901 9904 9907 9912 9916 9919 9924 9930 9935 9941 9947 9953 9959 9965 9971 9978 9985
9970 9959 9950 9941 9933 9925 9919 9912 9906 9900 9894 9889 9884 9880 9878 9877 9876 9874 9874 9873 9873 9874 9873 9875 9877 9879 9881 9882 9887 9892 9896 9898 9901 9907 9912 9916 9921 9925 9931 9936 9942 9948 9954 9961
9963 9952 9942 9933 9925 9917 9909 9902 9896 9890 9884 9879 9874 9870 9866 9864 9863 9861 9862 9860 9859 9859 9859 9860 9862 9864 9863 9865 9868 9873 9877 9881 9885 9889 9893 9897 9901 9906 9911 9917 9922 9928 9934 9940
9957 9947 9935 9925 9917 9908 9901 9893 9886 9880 9875 9870 9866 9862 9857 9854 9851 9849 9848 9848 9849 9848 9848 9849 9849 9849 9849 9851 9855 9857 9860 9864 9868 9872 9877 9881 9885 9890 9894 9898 9903 9909 9915 9921
9949 9938 9928 9917 9908 9899 9892 9886 9879 9873 9867 9862 9856 9852 9848 9845 9842 9840 9838 9836 9835 9836 9836 9836 9837 9837 9838 9839 9840 9844 9846 9849 9852 9857 9860 9865 9869 9874 9878 9883 9887 9892 9898 9903